This demonstration page uses our WeatherBlox Daily Observations layout. Learn more.

Left ArrowRight Arrow

39.01783, -85.05884

Hourly Observations for August 30, 2017

Temp ( °F °C ) Dew Point ( °F °C ) Humidity (%) Winds ( mph kmh ) Pressure ( in mb ) Visibility ( mi km ) Precip ( " mm )
12:44 am 00:44 Partly Cloudy with Patchy Fog 64 17.8 64 17.8 100 100 WNW 3 6 30.03 1017 4 6 0.00 0.00
12:52 am 00:52 Mostly Clear with Patchy Fog 64 17.8 64 17.8 100 100 W 3 6 29.99 1016 4 6 0.00 0.00
1:52 am 01:52 Partly Cloudy with Patchy Fog 63 17.2 63 17.2 100 100 Calm 29.98 1015 4 6 0.00 0.00
2:26 am 02:26 Partly Cloudy with Patchy Fog 64 17.8 64 17.8 100 100 Calm 29.97 1015 4 6 0.00 0.00
2:52 am 02:52 Partly Cloudy with Patchy Fog 62 16.7 62 16.7 100 100 Calm 29.97 1015 3 5 0.00 0.00
3:01 am 03:01 Mostly Cloudy with Mist and Fog 62 16.7 62 16.7 100 100 Calm 30.00 1016 1 2 0.00 0.00
3:13 am 03:13 Mostly Cloudy with Fog 63 17.2 63 17.2 100 100 Calm 30.00 1016 1 1 0.00 0.00
3:19 am 03:19 Mostly Cloudy with Fog 64 17.8 64 17.8 100 100 Calm 29.97 1015 0 0 0.00 0.00
3:34 am 03:34 Mostly Cloudy with Fog 63 17.2 63 17.2 100 100 Calm 30.00 1016 1 2 0.00 0.00
3:52 am 03:52 Mostly Cloudy with Fog 63 17.2 63 17.2 100 100 Calm 29.98 1015 5 8 0.00 0.00
4:52 am 04:52 Mostly Cloudy with Fog 63 17.2 63 17.2 100 100 Calm 29.99 1016 1 2 0.00 0.00
5:52 am 05:52 Mostly Cloudy with Fog 63 17.2 63 17.2 100 100 Calm 30.00 1016 1 2 0.00 0.00
6:52 am 06:52 Mostly Cloudy with Fog 60 15.6 60 15.6 100 100 Calm 30.02 1017 1 2 0.00 0.00
7:09 am 07:09 Mostly Cloudy with Fog 61 16.1 61 16.1 100 100 Calm 30.06 1018 1 2 0.00 0.00
7:52 am 07:52 Mostly Cloudy with Fog 62 16.7 62 16.7 100 100 Calm 30.04 1017 1 1 0.00 0.00
8:01 am 08:01 Mostly Cloudy with Mist and Fog 62 16.7 62 16.7 100 100 Calm 30.06 1018 1 1 0.00 0.00
8:14 am 08:14 Mostly Cloudy with Fog 63 17.2 63 17.2 100 100 N 3 6 30.06 1018 1 2 0.00 0.00
8:27 am 08:27 Mostly Cloudy with Fog 63 17.2 63 17.2 100 100 N 3 6 30.06 1018 5 8 0.00 0.00
8:52 am 08:52 Mostly Cloudy with Fog 65 18.3 65 18.3 100 100 VRB 3 6 30.05 1018 5 8 0.00 0.00
9:08 am 09:08 Mostly Cloudy with Mist and Fog 65 18.3 65 18.3 100 100 N 3 6 30.03 1017 5 8 0.00 0.00
9:20 am 09:20 Mostly Cloudy with Mist and Fog 65 18.3 65 18.3 100 100 Calm 30.03 1017 1 1 0.00 0.00
9:27 am 09:27 Mostly Cloudy with Mist and Fog 66 18.9 66 18.9 100 100 Calm 30.03 1017 3 5 0.00 0.00
9:38 am 09:38 Mostly Cloudy with Mist and Fog 67 19.4 67 19.4 100 100 Calm 30.03 1017 5 8 0.00 0.00
9:52 am 09:52 Mostly Cloudy with Mist and Fog 69 20.6 66 18.9 90 90 Calm 30.05 1018 6 10 0.00 0.00
10:52 am 10:52 Mostly Cloudy 73 22.8 65 18.3 76 76 Calm 30.06 1018 10 16 0.00 0.00
11:52 am 11:52 Mostly Cloudy 75 23.9 65 18.3 71 71 Calm 30.06 1018 10 16 0.00 0.00
12:52 pm 12:52 Mostly Cloudy 77 25 64 17.8 64 64 Calm 30.05 1018 10 16 0.00 0.00
1:52 pm 13:52 Mostly Cloudy 79 26.1 63 17.2 58 58 NNW 9 15 30.04 1017 10 16 0.00 0.00
2:52 pm 14:52 Mostly Cloudy 79 26.1 61 16.1 54 54 VRB 5 7 30.02 1017 10 16 0.00 0.00
3:52 pm 15:52 Mostly Cloudy 79 26.1 62 16.7 56 56 W 3 6 30.01 1016 10 16 0.00 0.00
4:52 pm 16:52 Mostly Cloudy 78 25.6 62 16.7 58 58 Calm 30.00 1016 10 16 0.00 0.00
5:52 pm 17:52 Mostly Cloudy 80 26.7 63 17.2 56 56 Calm 30.00 1016 10 16 0.00 0.00
6:52 pm 18:52 Cloudy 77 25 65 18.3 66 66 Calm 30.01 1016 10 16 0.00 0.00
7:52 pm 19:52 Cloudy 76 24.4 64 17.8 67 67 Calm 30.01 1016 10 16 0.00 0.00
8:52 pm 20:52 Cloudy 72 22.2 64 17.8 76 76 W 5 7 30.01 1016 10 16 0.00 0.00
9:52 pm 21:52 Cloudy 69 20.6 65 18.3 87 87 WSW 3 6 30.03 1017 10 16 0.00 0.00
10:52 pm 22:52 Cloudy 70 21.1 64 17.8 82 82 Calm 30.03 1017 10 16 0.00 0.00
11:52 pm 23:52 Mostly Cloudy 70 21.1 65 18.3 84 84 Calm 30.02 1017 10 16 0.00 0.00

Powered by AerisWeather